Location: Unspecified
(40.7945°N, 0.0000°E)
Time: 20:10:15
(UTC+00:00)

Explorer 7 - Pass Details

Date: 18 June 2021
Orbit: 484 x 676 km, 50.3° (Epoch: 28 July)

Event Time Altitude Azimuth Distance (km) Brightness Sun altitude
Rises 22:07:01 0° 254° (WSW) 3,020 10.7 -20.5°
Reaches altitude 10° 22:09:28 10° 260° (W) 2,104 10.0 -20.7°
Maximum altitude 22:14:12 48° 335° (NNW) 872 8.2 -21.1°
Drops below altitude 10° 22:18:48 10° 50° (NE) 2,052 9.9 -21.5°
Sets 22:21:10 0° 56° (NE) 2,938 10.6 -21.7°
